{"data":{"norad_id":68736,"intl_designator":"2026-082J","name":"STARLINK-37327","alt_names":[],"object_type":"PAYLOAD","status":"ACTIVE","operator":null,"country":"US","launch_date":"2026-04-15","launch_site_code":"AFWTR","launch_vehicle":null,"mission":null,"orbit_class":"UNKNOWN","rcs_meters":null,"size_class":null,"mass_kg":null,"dimensions":null,"purposes":["comms"],"wikipedia_slug":null,"has_3d_model":false,"image_url":null,"decayed_at":null,"tle_current":{"epoch":"2026-05-25T04:00:03.998880Z","epoch_age_seconds":64682,"freshness":"FRESH","line1":"1 68736U 26082J   26145.16671295 -.01891131  00000+0 -28893-1 0  9999","line2":"2 68736  97.2852   8.8005 0001852  82.9952  60.1516 15.57706895  5880","mean_motion":15.57706895,"eccentricity":0.0001852,"inclination_deg":97.2852,"raan_deg":8.8005,"arg_perigee_deg":82.9952,"mean_anomaly_deg":60.1516,"bstar":-0.028893,"rev_number":588,"period_min":92.443578738862,"perigee_km":393.04116208797,"apogee_km":395.54967105507,"semimajor_km":6772.4324165715,"source":"CELESTRAK","updated_at":"2026-05-25T13:38:22.005956Z"}}}